Showing default

IRIDIUM 180, 43922

Orbit data source: Space-Track

IRIDIUM 180, 43922 is a payload satellite owned by Iridium (US) in LEO that was launched on Fri, 11 Jan 2019 UTC via an FALCON 9 launch vehicle from the Air Force Western Test Range (AFWTR). Payloads include a variety of satellites, spacecraft, and rockets equipped with specific instruments for various scientific and technological missions. These include communications satellites like Starlink; space stations such as the ISS; scientific satellites like the Hubble; Earth observation satellites from companies like Planet Labs, Umbra, and HawkEye 360; GPS; miniature CubeSats for education and research; and military/defense satellites.

Loading next visibility...
IRIDIUM 180 details
Identifier
43922, 2019-002A
Orbit
LEO
Last TLE update11 hours ago
Origin
Flag of USIridium (US)
ManufacturerNGIS SSG Gilbert
MissionOperational Commercial Communications
Bus & MotorELITEBUS, Unknown motor
Mass860 kg wet, 700 kg dry
Launch date (UTC)
2019-01-11 (6 years ago)
Launch vehicle
FALCON 9
Launch site
Air Force Western Test Range (AFWTR)
Object type
Payload
Rocket body
Debris
Shape & HBRTrap Box + 2 Pan, 9.4 m
Radar Cross Section14.423 m², Large (>1 m²)

Expand to show TLE details & history

TLE from 11 hours ago
0 IRIDIUM 180
1 43922U 19002A   24361.15091325  .00000116  00000-0  34516-4 0  9995
2 43922  86.3976 218.4058 0002000  87.2023 272.9401 14.34217643311873
Epoch: 2024-12-26T03:37Z
Definitive object data (Epoch: 2024-12-26T03:37:18.904Z)
Latitude-0.00011°
Longitude68.9426°
Altitude780.645 km
Speed7.464 km/s
True Right ascension14h 33m 37s
True Declination0° 00' 00"
Sunlit
Object was in daylight at TLE epoch
Visualization TLE readout
Latitude-5.56695°
Longitude-110.89761°
Altitude781.852 km
Speed7.462 km/s
Apparent Right ascension02h 17m 44s
Apparent Declination-21° 40' 31"
Sunlit
Object is in full shadow
Visualization observer readout
Local Sidereal Time13:53:40
Azimuth342.544° N
Elevation-71.054°
Doppler factor1
Orbital elements
Apogee altitude776.063 km
Perigee altitude773.201 km
Semi-major axis7,152.769 km
Eccentricity0.0002
Inclination86.3976°
RAAN218.4058°
Arg. of periapsis87.2023°
True anomaly272.91721°
Mean anomaly272.9401°
Eccentric anomaly272.92866°
Mean motion3.58783 °/min
BSTAR0.000034516
Orbital period100.34 mins
Loading maneuver chart data...
Loading historical data...
Loading historical data...
Loading historical data...
Loading historical data...
Loading historical data...
Loading historical data...
Loading historical data...

IRIDIUM 180 Visibility forecast

Observer location: undefined°, undefined

Span
Click to sort rows by Start time (UTC) header in descending order
Start Az.
Max El. time (UTC)
Max El. Az.
Max El.
End time (UTC)
End Az.
10 mins2024-12-26 15:26:48.976Z187.725° SSW2024-12-26 15:31:48.976Z283.037° WNW43.927°2024-12-26 15:36:48.976Z358.792° N
7 mins2024-12-27 01:58:48.976Z29.844° NE2024-12-27 02:01:48.976Z73.923° E24.673°2024-12-27 02:05:48.976Z132.867° SE
7 mins2024-12-27 03:39:48.976Z325.678° NNW2024-12-27 03:42:48.976Z275.01° WNW27.678°2024-12-27 03:46:48.976Z217.624° SW
|